Location: Góry Miechowskie
(50.3599°N, 20.1803°E)
Time: 23:21:41
(UTC+00:00)

S-56A Canister/Altair - Pass Details

Date: 14 September 2024
Orbit: 636 x 2487 km, 38.9° (Epoch: 09 October)

Event Time Altitude Azimuth Distance (km) Brightness Sun altitude
Rises 22:07:15 0° 268° (W) 4,221 11.4 -36.4°
Reaches altitude 10° 22:10:12 10° 257° (WSW) 3,502 10.8 -36.4°
Enters shadow 22:10:21 11° 256° (WSW) 3,470 10.8 -36.4°
Maximum altitude 22:17:49 30° 201° (SSW) 2,839 - -36.6°
Drops below altitude 10° 22:27:59 10° 148° (SSE) 4,725 - -36.7°
Sets 22:32:47 0° 140° (SE) 5,936 - -36.7°
